Location: ????????
(54.6123°N, 39.2099°E)
Time: 02:41:14
(UTC+00:00)

Cosmos 2360 Rocket - Pass Details

Date: 19 May 2025
Orbit: 834 x 842 km, 71.0° (Epoch: 14 June)

Event Time Altitude Azimuth Distance (km) Brightness Sun altitude
Rises 19:42:38 0° 326° (NW) 3,396 7.2 -12.6°
Reaches altitude 10° 19:45:13 10° 333° (NNW) 2,458 6.1 -12.7°
Maximum altitude 19:50:33 42° 44° (NE) 1,189 3.2 -13.0°
Drops below altitude 10° 19:55:52 10° 115° (ESE) 2,447 4.2 -13.3°
Enters shadow 19:56:13 - 116° (ESE) 2,576 4.3 -13.3°
